period_start,C,m1,H,J0,J1,J2,J3,J4,J5,JA,JB,JC,JD,JJ,JK,JN,#
2013-08-15 00:00:12,0.00,0.19,0.00,25.72,28.72,30.38,5.93,28.83,1013.19,2044.99,3392.98,3297.00,3569.00,350.27,320.18,10.57,0000 0000 0000 0000 000000
2013-08-15 00:01:13,0.00,0.19,0.00,25.69,28.72,30.34,5.91,28.83,1013.20,2044.99,3392.96,3297.00,3569.01,349.47,319.39,10.57,0000 0000 0000 0000 000000
2013-08-15 00:02:13,0.00,0.19,0.00,25.67,28.72,30.36,5.85,28.71,1013.20,2044.99,3392.96,3297.00,3569.01,350.15,320.00,10.58,0000 0000 0000 0000 000000
2013-08-15 00:03:13,0.00,0.19,0.00,25.63,28.72,30.39,5.88,29.00,1013.17,2044.99,3392.95,3297.00,3569.00,350.54,320.49,10.58,0000 0000 0000 0000 000000
2013-08-15 00:04:13,0.00,0.19,0.00,25.64,28.72,30.40,5.98,28.88,1013.17,2044.99,3392.90,3297.00,3569.00,350.39,320.37,10.59,0000 0000 0000 0000 000000
2013-08-15 00:05:14,0.01,0.19,0.00,25.68,28.72,30.38,5.98,28.92,1013.16,2044.99,3392.68,3296.98,3569.00,350.21,320.32,10.60,0000 0000 0000 0000 000000
2013-08-15 00:06:14,0.03,0.19,0.00,25.68,28.72,30.35,5.74,28.63,1013.14,2044.99,3392.49,3296.98,3569.00,349.47,319.80,10.60,0000 0000 0000 0000 000000
2013-08-15 00:07:14,0.02,0.19,0.00,25.66,28.72,30.36,5.86,29.08,1013.16,2044.99,3392.28,3296.98,3568.99,350.06,319.79,10.61,0000 0000 0000 0000 000000
2013-08-15 00:08:14,0.02,0.19,0.00,25.66,28.72,30.36,5.93,28.79,1013.14,2044.99,3392.14,3296.94,3568.97,350.56,320.49,10.61,0000 0000 0000 0000 000000
2013-08-15 00:09:15,0.03,0.19,0.00,25.62,28.72,30.36,5.84,28.88,1013.13,2044.99,3392.06,3296.91,3568.93,349.70,319.86,10.62,0000 0000 0000 0000 000000
2013-08-15 00:10:15,0.02,0.19,0.00,25.67,28.72,30.34,5.76,28.63,1013.05,2044.99,3392.03,3296.84,3568.90,349.52,319.40,10.63,0000 0000 0000 0000 000000
2013-08-15 00:11:15,0.01,0.19,0.00,25.72,28.72,30.28,5.80,28.50,1012.97,2044.99,3392.03,3296.90,3568.91,350.59,320.23,10.63,0000 0000 0000 0000 000000
2013-08-15 00:12:16,-0.01,0.19,0.00,25.69,28.72,30.29,5.88,28.67,1012.93,2044.99,3392.01,3296.88,3568.83,350.91,320.75,10.64,0000 0000 0000 0000 000000
2013-08-15 00:13:16,0.01,0.19,0.00,25.67,28.72,30.31,5.88,28.88,1012.89,2044.99,3392.01,3296.82,3568.70,349.31,318.88,10.64,0000 0000 0000 0000 000000
2013-08-15 00:14:16,0.04,0.19,0.00,25.66,28.72,30.31,5.79,28.79,1012.85,2044.99,3392.00,3296.47,3568.39,349.70,319.36,10.65,0000 0000 0000 0000 000000
2013-08-15 00:15:17,0.09,0.19,0.00,25.61,28.72,30.33,5.84,28.71,1012.75,2044.99,3392.00,3296.38,3568.37,349.81,319.74,10.65,0000 0000 0000 0000 000000
2013-08-15 00:16:17,0.03,0.19,0.00,25.63,28.72,30.32,5.91,28.83,1012.80,2044.99,3392.00,3296.29,3568.30,350.54,320.40,10.66,0000 0000 0000 0000 000000
2013-08-15 00:17:17,0.03,0.19,0.00,25.66,28.72,30.31,5.87,28.79,1012.78,2044.99,3392.00,3296.21,3568.15,350.07,320.09,10.67,0000 0000 0000 0000 000000
2013-08-15 00:18:17,0.03,0.19,0.00,25.66,28.72,30.31,6.04,28.75,1012.76,2044.99,3391.99,3296.10,3568.07,351.10,320.87,10.67,0000 0000 0000 0000 000000
2013-08-15 00:19:18,0.02,0.19,0.00,25.65,28.72,30.29,5.92,28.71,1012.78,2044.99,3391.98,3296.04,3568.02,350.20,319.64,10.68,0000 0000 0000 0000 000000
2013-08-15 00:20:18,0.01,0.20,0.00,25.64,28.72,30.28,5.88,28.63,1012.81,2044.99,3391.93,3296.03,3568.00,350.71,320.50,10.68,0000 0000 0000 0000 000000
2013-08-15 00:21:19,0.01,0.20,0.00,25.66,28.71,30.29,6.00,28.75,1012.81,2044.99,3391.77,3296.01,3568.00,350.97,320.76,10.69,0000 0000 0000 0000 000000
2013-08-15 00:22:19,0.02,0.20,0.00,25.69,28.71,30.34,5.83,28.92,1012.81,2045.00,3391.56,3296.00,3568.00,348.73,318.69,10.70,0000 0000 0000 0000 000000
2013-08-15 00:23:19,0.03,0.20,0.00,25.69,28.70,30.35,5.74,28.63,1012.83,2045.00,3391.29,3296.00,3568.00,350.00,320.13,10.70,0000 0000 0000 0000 000000
2013-08-15 00:24:19,0.03,0.20,0.00,25.72,28.70,30.34,5.72,28.54,1012.86,2045.00,3391.15,3296.00,3568.00,349.47,319.35,10.71,0000 0000 0000 0000 000000
2013-08-15 00:25:19,0.01,0.20,0.00,25.69,28.70,30.32,5.85,28.75,1012.83,2045.00,3391.08,3296.00,3568.00,349.28,319.19,10.71,0000 0000 0000 0000 000000
2013-08-15 00:26:20,0.01,0.20,0.00,25.68,28.70,30.28,5.90,28.75,1012.81,2045.01,3391.04,3296.00,3567.99,349.24,319.38,10.72,0000 0000 0000 0000 000000
2013-08-15 00:27:20,0.01,0.20,0.00,25.71,28.70,30.31,5.83,28.88,1012.84,2045.00,3391.02,3296.00,3567.98,349.32,319.75,10.73,0000 0000 0000 0000 000000
2013-08-15 00:28:20,0.00,0.20,0.00,25.71,28.70,30.33,5.86,28.92,1012.82,2045.00,3391.00,3295.99,3567.93,350.47,320.26,10.73,0000 0000 0000 0000 000000
2013-08-15 00:29:20,0.01,0.20,0.00,25.67,28.70,30.31,5.94,28.79,1012.82,2045.00,3391.00,3295.95,3567.76,350.82,320.45,10.74,0000 0000 0000 0000 000000
2013-08-15 00:30:21,0.02,0.20,0.00,25.65,28.70,30.27,5.95,28.96,1012.82,2045.00,3391.00,3295.96,3567.74,350.22,319.34,10.74,0000 0000 0000 0000 000000
2013-08-15 00:31:21,0.01,0.20,0.00,25.66,28.70,30.30,5.91,28.96,1012.79,2045.00,3391.00,3295.94,3567.59,349.51,319.41,10.75,0000 0000 0000 0000 000000
2013-08-15 00:32:21,0.02,0.20,0.00,25.64,28.70,30.29,5.83,28.88,1012.81,2045.00,3390.99,3295.89,3567.32,349.52,320.01,10.75,0000 0000 0000 0000 000000
2013-08-15 00:33:21,0.04,0.20,0.00,25.65,28.70,30.32,5.98,28.79,1012.88,2045.01,3390.99,3295.78,3567.20,350.37,319.98,10.76,0000 0000 0000 0000 000000
2013-08-15 00:34:22,0.04,0.20,0.00,25.69,28.70,30.31,5.93,28.88,1012.89,2045.00,3390.98,3295.54,3567.09,350.33,320.17,10.77,0000 0000 0000 0000 000000
2013-08-15 00:35:22,0.06,0.20,0.00,25.70,28.70,30.33,5.71,28.88,1012.95,2045.00,3390.85,3295.27,3567.03,348.25,318.29,10.77,0000 0000 0000 0000 000000
2013-08-15 00:36:22,0.06,0.20,0.00,25.72,28.70,30.31,5.89,28.83,1012.92,2045.00,3390.69,3295.20,3567.01,350.75,320.53,10.78,0000 0000 0000 0000 000000
2013-08-15 00:37:22,0.05,0.20,0.00,25.68,28.70,30.30,5.92,28.83,1012.88,2045.01,3390.38,3295.09,3567.00,350.37,320.21,10.78,0000 0000 0000 0000 000000
2013-08-15 00:38:23,0.06,0.20,0.00,25.65,28.70,30.33,5.86,28.88,1012.85,2045.01,3390.16,3295.03,3567.00,350.14,320.03,10.79,0000 0000 0000 0000 000000
2013-08-15 00:39:23,0.04,0.20,0.00,25.65,28.70,30.34,5.73,29.00,1012.84,2045.00,3390.06,3295.01,3566.99,348.45,319.22,10.80,0000 0000 0000 0000 000000
2013-08-15 00:40:23,0.01,0.20,0.00,25.65,28.70,30.32,5.92,29.04,1012.87,2045.01,3390.02,3295.01,3566.97,349.58,319.53,10.80,0000 0000 0000 0000 000000
2013-08-15 00:41:24,0.01,0.20,0.00,25.66,28.70,30.32,5.88,29.08,1012.87,2045.01,3390.01,3295.00,3566.89,350.04,320.30,10.81,0000 0000 0000 0000 000000
2013-08-15 00:42:24,0.01,0.20,0.00,25.62,28.70,30.34,6.01,29.00,1012.97,2045.02,3390.00,3295.00,3566.83,351.23,321.10,10.81,0000 0000 0000 0000 000000
2013-08-15 00:43:24,0.00,0.20,0.00,25.65,28.70,30.34,5.90,28.96,1012.98,2045.01,3390.00,3294.99,3566.62,350.33,319.96,10.82,0000 0000 0000 0000 000000
2013-08-15 00:44:24,0.03,0.20,0.00,25.64,28.70,30.32,5.66,28.88,1013.03,2045.01,3389.98,3294.97,3566.31,348.93,318.77,10.82,0000 0000 0000 0000 000000
2013-08-15 00:45:25,0.04,0.20,0.00,25.64,28.70,30.29,5.94,28.83,1013.02,2045.01,3389.96,3294.98,3566.37,349.85,319.83,10.83,0000 0000 0000 0000 000000
2013-08-15 00:46:25,-0.01,0.20,0.00,25.66,28.70,30.33,5.87,28.71,1012.96,2045.00,3389.97,3294.98,3566.34,350.48,320.36,10.84,0000 0000 0000 0000 000000
2013-08-15 00:47:25,0.00,0.20,0.00,25.65,28.70,30.36,5.84,28.83,1012.90,2045.01,3389.96,3294.97,3566.19,349.12,319.12,10.84,0000 0000 0000 0000 000000
2013-08-15 00:48:25,0.01,0.20,0.00,25.64,28.70,30.31,5.78,28.75,1012.84,2045.00,3389.93,3294.95,3566.08,349.41,319.57,10.85,0000 0000 0000 0000 000000
2013-08-15 00:49:26,0.01,0.20,0.00,25.63,28.70,30.32,5.79,29.00,1012.79,2045.00,3389.80,3294.89,3566.04,350.06,319.95,10.85,0000 0000 0000 0000 000000
2013-08-15 00:50:26,0.04,0.20,0.00,25.62,28.70,30.32,5.78,28.71,1012.74,2045.00,3389.45,3294.75,3566.01,350.14,319.94,10.86,0000 0000 0000 0000 000000
2013-08-15 00:51:26,0.07,0.20,0.00,25.63,28.70,30.34,5.87,29.08,1012.77,2045.00,3389.17,3294.56,3566.00,349.86,320.01,10.87,0000 0000 0000 0000 000000
2013-08-15 00:52:26,0.08,0.20,0.00,25.67,28.70,30.35,5.98,29.00,1012.75,2045.01,3389.09,3294.43,3566.00,349.71,319.84,10.87,0000 0000 0000 0000 000000
2013-08-15 00:53:27,0.05,0.20,0.00,25.68,28.70,30.34,5.88,28.75,1012.77,2045.01,3389.04,3294.25,3565.99,349.66,319.54,10.88,0000 0000 0000 0000 000000
2013-08-15 00:54:27,0.04,0.20,0.00,25.65,28.70,30.30,5.94,29.00,1012.76,2045.01,3389.02,3294.14,3565.99,350.00,319.87,10.88,0000 0000 0000 0000 000000
2013-08-15 00:55:27,0.01,0.20,0.00,25.65,28.70,30.34,5.93,29.04,1012.74,2045.00,3389.00,3294.09,3565.99,349.49,319.41,10.89,0000 0000 0000 0000 000000
2013-08-15 00:56:27,0.00,0.20,0.00,25.67,28.70,30.32,5.96,28.88,1012.76,2045.00,3389.00,3294.07,3565.97,349.97,319.82,10.89,0000 0000 0000 0000 000000
2013-08-15 00:57:28,0.01,0.20,0.00,25.74,28.69,30.30,5.78,28.75,1012.76,2045.00,3389.00,3294.03,3565.85,348.46,318.38,10.90,0000 0000 0000 0000 000000
2013-08-15 00:58:28,0.02,0.20,0.00,25.76,28.69,30.36,5.82,28.79,1012.72,2045.00,3389.00,3294.02,3565.85,350.30,320.01,10.91,0000 0000 0000 0000 000000
2013-08-15 00:59:28,0.01,0.20,0.00,25.72,28.69,30.35,6.00,28.96,1012.74,2045.01,3388.98,3294.00,3565.75,349.93,320.01,10.91,0000 0000 0000 0000 000000
2013-08-15 01:00:29,0.02,0.20,0.00,25.72,28.69,30.32,5.88,28.58,1012.76,2045.01,3388.97,3294.00,3565.49,350.47,320.11,10.92,0000 0000 0000 0000 000000
2013-08-15 01:01:29,0.04,0.20,0.00,25.72,28.69,30.36,5.89,28.88,1012.74,2045.01,3388.92,3294.00,3565.23,350.20,319.97,10.92,0000 0000 0000 0000 000000
2013-08-15 01:02:29,0.03,0.20,0.00,25.69,28.69,30.37,5.86,28.75,1012.74,2045.02,3388.83,3294.00,3565.14,350.27,320.07,10.93,0000 0000 0000 0000 000000
2013-08-15 01:03:29,0.04,0.20,0.00,25.68,28.69,30.37,5.94,28.67,1012.77,2045.02,3388.51,3294.00,3565.08,350.45,320.35,10.94,0000 0000 0000 0000 000000
2013-08-15 01:04:29,0.04,0.20,0.00,25.72,28.68,30.37,5.89,28.92,1012.75,2045.03,3388.27,3293.99,3565.04,350.38,320.03,10.94,0000 0000 0000 0000 000000
2013-08-15 01:05:30,0.04,0.20,0.00,25.69,28.68,30.35,5.76,28.75,1012.79,2045.03,3388.12,3293.97,3565.02,349.36,319.51,10.95,0000 0000 0000 0000 000000
2013-08-15 01:06:30,0.02,0.20,0.00,25.70,28.68,30.36,5.97,28.96,1012.78,2045.03,3388.04,3293.98,3565.00,350.73,320.39,10.95,0000 0000 0000 0000 000000
2013-08-15 01:07:30,0.00,0.20,0.00,25.73,28.68,30.35,5.80,28.88,1012.79,2045.05,3388.01,3293.95,3565.00,349.07,318.94,10.96,0000 0000 0000 0000 000000
2013-08-15 01:08:31,0.01,0.20,0.00,25.69,28.68,30.33,6.01,28.92,1012.78,2045.05,3388.00,3293.92,3565.00,350.31,320.32,10.97,0000 0000 0000 0000 000000
2013-08-15 01:09:31,0.01,0.20,0.00,25.66,28.68,30.33,5.88,28.83,1012.76,2045.03,3388.00,3293.76,3565.00,350.11,320.24,10.97,0000 0000 0000 0000 000000
2013-08-15 01:10:31,0.02,0.20,0.00,25.70,28.68,30.35,5.86,28.88,1012.76,2045.03,3388.00,3293.44,3565.00,349.14,319.22,10.98,0000 0000 0000 0000 000000
2013-08-15 01:11:31,0.08,0.20,0.00,25.71,28.68,30.33,5.84,28.75,1012.76,2045.07,3387.99,3293.36,3564.95,349.20,319.33,10.98,0000 0000 0000 0000 000000
2013-08-15 01:12:32,0.03,0.20,0.00,25.70,28.67,30.35,5.88,28.58,1012.75,2045.06,3387.95,3293.28,3564.90,349.83,319.67,10.99,0000 0000 0000 0000 000000
2013-08-15 01:13:32,0.01,0.20,0.00,25.66,28.68,30.36,5.89,29.00,1012.74,2045.03,3387.82,3293.15,3564.74,350.08,319.93,10.99,0000 0000 0000 0000 000000
2013-08-15 01:14:32,0.06,0.20,0.00,25.63,28.67,30.36,5.87,28.92,1012.74,2045.06,3387.67,3293.06,3564.49,349.23,319.19,11.00,0000 0000 0000 0000 000000
2013-08-15 01:15:32,0.08,0.21,0.00,25.63,28.67,30.35,5.92,28.83,1012.78,2045.08,3387.43,3293.03,3564.25,350.50,320.35,11.01,0000 0000 0000 0000 000000
2013-08-15 01:16:32,0.07,0.21,0.00,25.63,28.67,30.35,5.85,28.71,1012.76,2045.07,3387.18,3293.01,3564.12,349.83,319.74,11.01,0000 0000 0000 0000 000000
2013-08-15 01:17:33,0.04,0.21,0.00,25.60,28.67,30.37,5.90,29.04,1012.75,2045.06,3387.08,3293.00,3564.06,349.62,320.02,11.02,0000 0000 0000 0000 000000
2013-08-15 01:18:33,0.01,0.21,0.00,25.62,28.67,30.38,5.86,28.71,1012.78,2045.05,3387.03,3293.00,3564.03,349.78,319.80,11.02,0000 0000 0000 0000 000000
2013-08-15 01:19:33,0.00,0.21,0.00,25.66,28.67,30.38,5.91,28.67,1012.82,2045.07,3387.02,3293.00,3564.01,350.39,320.24,11.03,0000 0000 0000 0000 000000
2013-08-15 01:20:34,0.02,0.21,0.00,25.72,28.67,30.38,5.74,28.96,1012.84,2045.10,3387.00,3293.00,3564.00,349.12,319.02,11.04,0000 0000 0000 0000 000000
2013-08-15 01:21:34,0.02,0.21,0.00,25.72,28.67,30.36,5.87,29.00,1012.81,2045.13,3387.00,3293.00,3564.00,349.68,319.51,11.04,0000 0000 0000 0000 000000
2013-08-15 01:22:34,0.01,0.21,0.00,25.69,28.67,30.35,5.90,28.71,1012.76,2045.09,3387.00,3293.00,3564.00,350.18,320.00,11.05,0000 0000 0000 0000 000000
2013-08-15 01:23:34,-0.03,0.21,0.00,25.68,28.67,30.37,5.92,28.92,1012.73,2045.04,3387.00,3293.00,3564.00,350.74,320.51,11.05,0000 0000 0000 0000 000000
2013-08-15 01:24:34,-0.02,0.21,0.00,25.68,28.67,30.35,5.82,28.88,1012.74,2045.04,3386.99,3292.96,3563.98,350.38,320.18,11.06,0000 0000 0000 0000 000000
2013-08-15 01:25:35,0.02,0.21,0.00,25.72,28.67,30.33,5.79,28.79,1012.75,2045.03,3386.87,3292.82,3563.89,349.33,318.99,11.06,0000 0000 0000 0000 000000
2013-08-15 01:26:35,0.04,0.21,0.00,25.69,28.67,30.38,5.88,28.88,1012.75,2045.02,3386.64,3292.70,3563.74,349.96,319.80,11.07,0000 0000 0000 0000 000000
2013-08-15 01:27:35,0.07,0.21,0.00,25.69,28.67,30.38,5.69,28.79,1012.72,2045.04,3386.36,3292.58,3563.56,349.21,319.19,11.08,0000 0000 0000 0000 000000
2013-08-15 01:28:35,0.10,0.21,0.00,25.69,28.67,30.39,5.81,28.63,1012.74,2045.06,3386.16,3292.45,3563.42,349.07,319.36,11.08,0000 0000 0000 0000 000000
2013-08-15 01:29:36,0.08,0.21,0.00,25.71,28.67,30.34,5.88,28.75,1012.74,2045.06,3386.06,3292.25,3563.23,349.81,319.62,11.09,0000 0000 0000 0000 000000
2013-08-15 01:30:36,0.07,0.21,0.00,25.70,28.67,30.39,5.83,29.00,1012.73,2045.05,3386.02,3292.09,3563.10,348.98,318.76,11.09,0000 0000 0000 0000 000000
2013-08-15 01:31:36,0.04,0.21,0.00,25.73,28.67,30.36,5.84,28.71,1012.71,2045.04,3386.00,3292.03,3563.05,349.71,319.51,11.10,0000 0000 0000 0000 000000
2013-08-15 01:32:36,0.01,0.21,0.00,25.71,28.67,30.34,5.94,28.75,1012.73,2045.06,3385.98,3292.03,3563.02,350.45,320.31,11.11,0000 0000 0000 0000 000000
2013-08-15 01:33:37,0.02,0.21,0.00,25.72,28.67,30.31,5.81,28.75,1012.72,2045.07,3385.98,3292.01,3563.00,349.89,319.69,11.11,0000 0000 0000 0000 000000
2013-08-15 01:34:37,0.01,0.21,0.00,25.68,28.67,30.36,5.88,28.83,1012.73,2045.14,3385.94,3292.00,3562.99,350.10,319.93,11.12,0000 0000 0000 0000 000000
2013-08-15 01:35:37,0.08,0.21,0.00,25.69,28.67,30.46,5.94,28.79,1012.71,2045.14,3385.70,3292.00,3562.98,351.20,320.91,11.12,0000 0000 0000 0000 000000
2013-08-15 01:36:37,0.02,0.21,0.00,25.76,28.67,30.47,5.97,28.75,1012.73,2045.06,3385.40,3292.00,3562.94,350.28,320.01,11.13,0000 0000 0000 0000 000000
2013-08-15 01:37:38,0.00,0.21,0.00,25.77,28.67,30.45,5.98,28.75,1012.72,2045.06,3385.20,3292.00,3562.84,350.91,320.17,11.14,0000 0000 0000 0000 000000
2013-08-15 01:38:38,0.06,0.21,0.00,25.74,28.67,30.49,5.79,28.63,1012.71,2045.08,3385.08,3291.97,3562.63,350.14,319.89,11.14,0000 0000 0000 0000 000000
2013-08-15 01:39:38,0.07,0.21,0.00,25.72,28.67,30.50,5.85,28.79,1012.71,2045.08,3385.03,3291.85,3562.27,349.93,319.72,11.15,0000 0000 0000 0000 000000
2013-08-15 01:40:38,0.06,0.21,0.00,25.71,28.67,30.53,5.85,29.13,1012.73,2045.07,3385.00,3291.57,3562.10,349.36,319.59,11.15,0000 0000 0000 0000 000000
2013-08-15 01:41:38,0.07,0.21,0.00,25.67,28.67,30.55,5.91,29.17,1012.71,2045.07,3384.93,3291.25,3562.04,350.17,319.74,11.16,0000 0000 0000 0000 000000
2013-08-15 01:42:39,0.06,0.21,0.00,25.75,28.67,30.54,6.01,29.13,1012.71,2045.06,3384.59,3291.10,3562.01,350.39,320.12,11.16,0000 0000 0000 0000 000000
2013-08-15 01:43:39,0.08,0.21,0.00,25.76,28.67,30.53,5.99,29.13,1012.71,2045.09,3384.23,3291.03,3562.00,350.49,319.89,11.17,0000 0000 0000 0000 000000
2013-08-15 01:44:39,0.11,0.21,0.00,25.70,28.67,30.56,5.82,28.88,1012.71,2045.15,3384.13,3291.01,3561.98,349.07,318.83,11.18,0000 0000 0000 0000 000000
2013-08-15 01:45:39,0.03,0.21,0.00,25.69,28.67,30.51,5.90,28.83,1012.71,2045.10,3384.07,3291.00,3561.96,350.17,320.09,11.18,0000 0000 0000 0000 000000
2013-08-15 01:46:40,-0.04,0.21,0.00,25.71,28.67,30.53,5.82,28.83,1012.71,2045.07,3384.06,3291.00,3561.94,350.14,319.93,11.19,0000 0000 0000 0000 000000
2013-08-15 01:47:40,0.02,0.21,0.00,25.69,28.67,30.54,5.93,28.96,1012.71,2045.09,3384.02,3291.00,3561.82,349.45,319.08,11.19,0000 0000 0000 0000 000000
2013-08-15 01:48:40,0.01,0.21,0.00,25.66,28.67,30.52,5.83,28.83,1012.71,2045.08,3384.00,3291.00,3561.63,349.97,319.68,11.20,0000 0000 0000 0000 000000
2013-08-15 01:49:40,0.02,0.21,0.00,25.69,28.67,30.57,5.92,28.79,1012.71,2045.09,3384.00,3290.98,3561.43,349.15,319.53,11.21,0000 0000 0000 0000 000000
2013-08-15 01:50:40,0.04,0.21,0.00,25.69,28.67,30.58,5.93,28.67,1012.71,2045.14,3384.00,3290.98,3561.27,350.69,320.24,11.21,0000 0000 0000 0000 000000
2013-08-15 01:51:41,0.07,0.21,0.00,25.67,28.67,30.57,5.81,28.92,1012.71,2045.15,3383.98,3290.96,3561.14,349.53,319.45,11.22,0000 0000 0000 0000 000000
2013-08-15 01:52:41,-0.01,0.21,0.00,25.66,28.67,30.56,5.82,28.88,1012.71,2045.10,3383.94,3290.95,3561.06,349.61,319.49,11.22,0000 0000 0000 0000 000000
2013-08-15 01:53:41,-0.01,0.21,0.00,25.69,28.67,30.55,5.73,28.88,1012.71,2045.10,3383.87,3290.95,3561.03,349.37,319.58,11.23,0000 0000 0000 0000 000000
2013-08-15 01:54:42,0.01,0.21,0.00,25.65,28.67,30.54,5.75,28.75,1012.71,2045.16,3383.55,3290.91,3561.00,348.86,318.82,11.23,0000 0000 0000 0000 000000
2013-08-15 01:55:42,0.12,0.21,0.00,25.65,28.67,30.55,5.86,28.83,1012.71,2045.15,3383.26,3290.56,3561.00,349.64,319.54,11.24,0000 0000 0000 0000 000000
2013-08-15 01:56:42,0.08,0.21,0.00,25.65,28.67,30.57,5.95,28.88,1012.71,2045.10,3383.12,3290.24,3560.98,350.06,319.72,11.25,0000 0000 0000 0000 000000
2013-08-15 01:57:42,0.04,0.22,0.00,25.65,28.67,30.57,5.87,28.71,1012.71,2045.27,3383.04,3290.18,3560.98,349.28,319.20,11.25,0000 0000 0000 0000 000000
2013-08-15 01:58:42,0.21,0.22,0.00,25.68,28.67,30.55,5.78,28.63,1012.71,2045.32,3383.01,3290.09,3560.94,349.17,319.07,11.26,0000 0000 0000 0000 000000
2013-08-15 01:59:43,-0.01,0.22,0.00,25.64,28.67,30.56,5.93,28.88,1012.71,2045.23,3383.00,3290.04,3560.78,350.65,320.47,11.26,0000 0000 0000 0000 000000
2013-08-15 02:00:43,0.01,0.22,0.00,25.67,28.67,30.54,5.92,28.75,1012.71,2045.20,3382.90,3290.01,3560.50,349.88,320.16,11.27,0000 0000 0000 0000 000000
2013-08-15 02:01:43,0.03,0.22,0.00,25.70,28.67,30.56,5.84,28.54,1012.71,2045.31,3382.75,3290.00,3560.32,350.44,319.99,11.28,0000 0000 0000 0000 000000
2013-08-15 02:02:43,0.11,0.22,0.00,25.78,28.67,30.56,5.85,28.79,1012.71,2045.42,3382.63,3290.00,3560.15,349.45,318.64,11.28,0000 0000 0000 0000 000000
2013-08-15 02:03:43,0.10,0.22,0.00,25.70,28.67,30.54,5.84,28.63,1012.71,2045.46,3382.40,3290.00,3560.07,350.45,320.17,11.29,0000 0000 0000 0000 000000
2013-08-15 02:04:44,0.08,0.22,0.00,25.65,28.67,30.55,5.83,28.96,1012.71,2045.34,3382.17,3290.00,3560.02,348.86,318.81,11.29,0000 0000 0000 0000 000000
2013-08-15 02:05:44,-0.09,0.22,0.00,25.71,28.67,30.54,5.87,28.63,1012.71,2045.23,3382.07,3289.98,3560.00,350.91,320.63,11.30,0000 0000 0000 0000 000000
2013-08-15 02:06:44,-0.03,0.22,0.00,25.71,28.67,30.57,5.83,28.58,1012.71,2045.18,3382.02,3289.93,3560.00,350.29,320.06,11.31,0000 0000 0000 0000 000000
2013-08-15 02:07:44,-0.03,0.22,0.00,25.71,28.67,30.53,5.79,28.88,1012.71,2045.16,3382.00,3289.90,3559.99,349.65,319.48,11.31,0000 0000 0000 0000 000000
2013-08-15 02:08:44,0.00,0.22,0.00,25.73,28.67,30.54,5.90,28.63,1012.71,2045.18,3381.99,3289.73,3559.99,350.40,320.13,11.32,0000 0000 0000 0000 000000
2013-08-15 02:09:44,0.05,0.22,0.00,25.73,28.67,30.58,5.87,28.79,1012.71,2045.18,3381.95,3289.44,3559.97,349.73,319.52,11.32,0000 0000 0000 0000 000000
2013-08-15 02:10:45,0.06,0.22,0.00,25.71,28.67,30.58,5.87,28.79,1012.71,2045.19,3381.67,3289.20,3559.86,350.57,320.32,11.33,0000 0000 0000 0000 000000
2013-08-15 02:11:45,0.12,0.22,0.00,25.66,28.67,30.59,6.01,28.92,1012.71,2045.20,3381.25,3289.08,3559.43,351.62,321.33,11.33,0000 0000 0000 0000 000000
2013-08-15 02:12:45,0.14,0.22,0.00,25.67,28.67,30.57,5.97,28.92,1012.71,2045.19,3381.09,3289.03,3559.16,349.89,320.11,11.34,0000 0000 0000 0000 000000
2013-08-15 02:13:45,0.04,0.22,0.00,25.66,28.67,30.56,5.92,28.83,1012.71,2045.13,3381.00,3289.00,3559.06,350.35,320.10,11.35,0000 0000 0000 0000 000000
2013-08-15 02:14:45,-0.01,0.22,0.00,25.74,28.67,30.57,5.86,28.71,1012.72,2045.12,3380.75,3288.95,3559.01,350.69,320.59,11.35,0000 0000 0000 0000 000000
2013-08-15 02:15:46,0.04,0.22,0.00,25.73,28.67,30.60,5.98,28.88,1012.71,2045.08,3380.41,3288.85,3558.97,350.76,320.14,11.36,0000 0000 0000 0000 000000
2013-08-15 02:16:46,0.04,0.22,0.00,25.70,28.67,30.59,5.90,28.88,1012.71,2045.07,3380.21,3288.67,3558.85,350.61,320.79,11.36,0000 0000 0000 0000 000000
2013-08-15 02:17:46,0.06,0.22,0.00,25.70,28.67,30.58,5.92,28.92,1012.71,2045.10,3380.07,3288.39,3558.58,349.75,319.58,11.37,0000 0000 0000 0000 000000
2013-08-15 02:18:47,0.13,0.22,0.00,25.69,28.67,30.57,5.88,28.67,1012.71,2045.08,3380.03,3288.29,3558.38,350.64,320.40,11.38,0000 0000 0000 0000 000000
2013-08-15 02:19:47,0.02,0.22,0.00,25.67,28.67,30.57,5.74,28.88,1012.71,2045.13,3380.02,3288.22,3558.27,347.98,317.98,11.38,0000 0000 0000 0000 000000
2013-08-15 02:20:47,0.08,0.22,0.00,25.67,28.67,30.55,5.83,28.54,1012.71,2045.11,3380.00,3288.11,3558.11,350.13,319.96,11.39,0000 0000 0000 0000 000000
2013-08-15 02:21:47,0.04,0.22,0.00,25.65,28.67,30.56,5.78,28.83,1012.71,2045.11,3379.99,3288.05,3558.04,349.49,319.40,11.39,0000 0000 0000 0000 000000
2013-08-15 02:22:47,0.00,0.22,0.00,25.67,28.67,30.56,5.99,28.75,1012.71,2045.23,3379.98,3288.02,3558.01,350.78,320.55,11.40,0000 0000 0000 0000 000000
2013-08-15 02:23:48,0.11,0.22,0.00,25.69,28.67,30.57,5.95,29.00,1012.71,2045.28,3379.96,3288.00,3558.00,349.82,319.65,11.40,0000 0000 0000 0000 000000
2013-08-15 02:24:48,0.00,0.22,0.00,25.73,28.67,30.54,5.82,28.79,1012.71,2045.27,3379.86,3288.00,3558.00,351.40,320.57,11.41,0000 0000 0000 0000 000000
2013-08-15 02:25:49,0.01,0.22,0.00,25.75,28.67,30.54,5.74,28.75,1012.71,2045.20,3379.55,3288.00,3558.00,349.68,319.45,11.42,0000 0000 0000 0000 000000
2013-08-15 02:26:49,0.00,0.22,0.00,25.75,28.67,30.57,5.83,28.58,1012.71,2045.15,3379.26,3288.00,3557.98,350.16,319.90,11.42,0000 0000 0000 0000 000000
2013-08-15 02:27:49,0.00,0.22,0.00,25.73,28.67,30.57,5.86,28.67,1012.71,2045.14,3379.12,3287.99,3557.97,350.03,319.80,11.43,0000 0000 0000 0000 000000
2013-08-15 02:28:49,0.02,0.22,0.00,25.73,28.67,30.58,6.00,28.58,1012.71,2045.13,3379.06,3287.97,3557.92,350.90,320.40,11.43,0000 0000 0000 0000 000000
2013-08-15 02:29:49,0.01,0.22,0.00,25.78,28.67,30.58,5.83,28.96,1012.71,2045.15,3379.02,3287.97,3557.79,349.36,318.77,11.44,0000 0000 0000 0000 000000
2013-08-15 02:30:49,0.03,0.22,0.00,25.78,28.67,30.58,5.79,28.58,1012.72,2045.12,3379.00,3287.96,3557.54,350.72,320.32,11.45,0000 0000 0000 0000 000000
2013-08-15 02:31:49,-0.01,0.22,0.00,25.72,28.67,30.58,5.85,28.88,1012.72,2045.08,3378.98,3287.84,3557.30,349.96,320.08,11.45,0000 0000 0000 0000 000000
2013-08-15 02:32:50,0.04,0.22,0.00,25.70,28.67,30.59,5.88,28.75,1012.71,2045.08,3378.95,3287.59,3557.11,349.54,319.58,11.46,0000 0000 0000 0000 000000
2013-08-15 02:33:50,0.11,0.22,0.00,25.73,28.67,30.60,5.93,28.75,1012.71,2045.07,3378.81,3287.36,3557.04,350.12,319.68,11.46,0000 0000 0000 0000 000000
2013-08-15 02:34:50,0.02,0.22,0.00,25.73,28.67,30.58,5.83,28.54,1012.71,2045.21,3378.46,3287.21,3557.01,350.19,319.69,11.47,0000 0000 0000 0000 000000
2013-08-15 02:35:50,0.24,0.23,0.00,25.76,28.67,30.55,5.93,28.75,1012.71,2045.23,3378.18,3287.10,3557.00,350.90,320.54,11.47,0000 0000 0000 0000 000000